Location: *
(29.1167°S, 130.0000°E)
Time: 06:48:35
(UTC+00:00)

Cosmos 1864 Rocket - Pass Details

Date: 21 July 2019
Orbit: 952 x 996 km, 82.9° (Epoch: 25 August)

Event Time Altitude Azimuth Distance (km) Brightness Sun altitude
Rises 09:55:07 0° 186° (S) 3,662 7.4 -15.8°
Reaches altitude 10° 09:57:38 10° 186° (S) 2,706 6.7 -16.3°
Maximum altitude 10:03:50 86° 274° (W) 965 4.5 -17.6°
Drops below altitude 10° 10:09:58 10° 2° (N) 2,674 6.9 -18.9°
Sets 10:12:26 0° 3° (N) 3,615 7.6 -19.5°
